Location: ??????
(38.3184°N, 23.6932°E)
Time: 01:38:27
(UTC+00:00)

COSMO-SKYMED 1 - Pass Details

Date: 16 October 2021
Orbit: 621 x 623 km, 97.9° (Epoch: 04 December)

Event Time Altitude Azimuth Distance (km) Brightness Sun altitude
Rises 17:02:47 0° 3° (N) 2,912 6.0 -15.8°
Reaches altitude 10° 17:05:05 10° 355° (N) 2,001 5.2 -16.3°
Maximum altitude 17:09:06 37° 288° (WNW) 967 4.1 -17.1°
Drops below altitude 10° 17:13:05 10° 221° (SW) 1,987 5.7 -17.9°
Sets 17:15:22 0° 213° (SSW) 2,888 6.4 -18.3°
